GFSGL_925_spd_162.txt.gz
Wind_Speed
32 33 29 30 28 26 24 20 14 13 14 17 18 19 21 22 20 19 19 19 19 20 24 26 28 30 30 29 28 25 24 23 18 25 26 28 26 30 33 30 27 29 32
28 23 22 23 24 24 21 13 15 17 22 22 21 19 17 13 12 13 16 18 20 21 22 24 27 28 27 27 26 24 24 24 24 25 24 26 26 28 29 31 30 29 30
20 17 18 20 22 17 15 17 16 19 22 20 17 10 8 11 14 16 17 16 18 20 21 23 26 26 24 24 25 24 23 23 23 28 26 25 28 24 26 24 30 31 29
15 14 12 12 10 12 13 13 12 11 10 7 6 8 12 13 14 16 15 17 18 20 22 24 25 25 24 26 26 24 24 25 25 27 27 22 22 23 23 23 22 22 24
8 5 5 5 3 2 2 4 6 7 8 10 10 11 12 15 15 16 16 18 20 22 25 27 24 26 28 31 25 24 25 25 25 25 24 21 17 19 20 19 19 22 24
9 9 7 5 5 6 7 9 9 10 9 10 13 15 16 17 19 18 18 19 20 24 29 30 30 30 32 33 29 30 28 29 28 26 25 19 18 20 22 21 20 17 10
14 11 9 7 7 8 9 10 11 13 15 15 16 18 17 17 17 18 18 19 24 27 30 33 33 28 33 31 31 32 31 27 25 26 22 20 18 22 24 24 21 20 22
11 8 7 8 10 11 12 13 13 13 14 16 17 16 16 14 15 17 19 23 28 33 34 33 31 31 33 34 31 29 32 30 29 30 27 29 25 26 27 26 28 28 26
9 8 9 10 11 13 14 14 14 14 14 15 14 13 14 16 21 25 26 26 27 30 33 34 30 32 33 30 29 29 32 37 31 21 18 20 22 26 26 25 24 21 17
8 8 10 11 11 11 11 11 12 12 12 13 14 17 18 21 23 23 21 26 26 26 32 32 32 26 28 25 26 28 25 28 23 26 25 25 27 26 32 28 28 24 24
7 7 7 6 6 7 8 8 8 12 13 13 15 17 20 22 24 20 23 25 25 27 30 32 30 35 31 24 16 14 16 21 25 24 23 23 22 25 26 32 33 35 36
4 4 6 5 5 5 6 7 10 11 12 14 16 21 24 23 19 22 26 26 25 27 28 25 25 29 16 8 13 14 15 15 18 17 18 19 21 25 32 40 42 44 44
5 7 8 8 8 8 9 10 9 7 9 13 15 22 26 25 21 26 27 29 28 26 20 16 18 20 16 18 16 18 17 17 14 15 17 21 24 32 40 42 41 37 38
8 7 8 10 9 9 10 11 11 11 12 11 14 17 22 23 21 28 30 27 26 20 19 16 16 17 17 21 22 22 20 19 17 19 22 26 28 33 35 39 36 33 31
7 6 6 6 5 5 8 11 10 8 9 11 12 16 20 20 19 23 22 18 17 15 14 18 22 23 24 29 27 24 23 25 27 28 26 28 28 31 34 41 37 31 24
8 8 7 7 9 9 8 8 9 9 5 11 11 15 16 14 18 19 12 13 14 17 21 19 20 22 20 24 23 25 22 27 26 25 28 26 26 29 32 37 38 31 25
11 9 8 9 9 9 10 11 11 10 9 12 14 15 13 14 16 17 12 10 17 19 18 18 20 21 23 22 21 21 22 25 25 22 26 25 26 29 31 31 34 33 35
7 7 6 6 7 7 8 9 9 11 13 16 16 17 16 14 17 17 16 16 20 15 19 19 19 20 21 22 22 24 25 26 24 24 27 27 28 26 27 29 31 32 28
5 5 4 4 4 4 4 5 6 9 11 12 15 19 20 17 16 19 18 17 16 17 18 19 21 20 20 21 20 20 21 23 24 24 25 27 28 27 28 28 29 33 28
4 4 7 8 6 4 3 2 3 6 8 10 12 16 20 20 16 19 22 19 16 17 20 19 18 18 18 19 22 22 22 22 25 26 26 26 29 26 25 27 28 27 27
5 4 5 10 7 4 3 2 1 3 7 9 12 14 15 15 14 17 17 17 18 19 19 18 16 17 19 21 21 21 21 22 23 24 27 28 31 30 27 26 25 26 24
7 4 2 6 5 4 5 4 3 2 6 11 12 12 14 14 14 13 14 15 13 18 19 18 17 18 20 20 21 22 22 23 25 26 27 27 27 24 28 26 26 26 24
7 5 3 4 2 1 2 3 2 1 5 8 10 12 14 15 14 13 13 14 16 16 18 19 18 20 23 22 22 22 23 25 25 24 26 26 25 25 23 24 24 23 24
7 7 7 5 4 5 4 2 2 3 4 7 9 10 12 13 14 15 16 16 18 19 19 20 20 20 22 25 25 25 25 25 24 24 23 23 22 23 22 22 23 23 23
8 9 7 6 4 5 5 3 6 7 6 7 9 10 12 13 15 16 18 19 20 22 23 24 24 23 24 25 27 25 25 24 23 23 24 22 21 22 22 20 23 22 23
8 9 8 7 6 7 5 6 6 5 6 8 8 9 10 11 12 14 16 18 20 22 23 25 27 27 27 28 29 26 26 26 27 24 25 22 21 21 22 22 24 22 21

GFSGL_925_spd_165.txt.gz
Wind_Speed
19 19 20 17 15 13 12 8 10 7 7 11 11 12 13 13 12 8 8 9 10 12 13 14 16 16 18 19 19 21 24 25 20 26 25 24 26 28 27 26 24 25 26
14 14 13 10 10 8 6 6 6 8 11 11 11 11 9 6 7 8 9 11 12 14 15 16 17 16 17 17 19 21 24 26 28 26 22 24 24 28 28 27 27 25 25
9 8 7 6 4 2 4 7 10 10 8 8 7 5 5 8 10 11 12 13 15 16 15 15 16 17 18 19 21 24 25 26 26 28 26 22 23 26 28 25 24 26 26
6 6 5 3 2 1 3 4 5 6 6 6 6 7 8 10 12 12 12 14 13 13 14 15 16 17 19 22 23 23 23 23 23 25 25 25 23 27 25 25 23 23 22
10 9 7 6 6 6 7 7 7 6 5 5 6 7 8 10 10 11 12 12 12 13 15 16 17 19 21 20 19 21 22 22 21 23 20 21 23 20 27 18 22 21 22
12 12 11 11 10 9 7 6 4 4 5 6 7 9 9 9 11 11 10 11 14 16 17 18 20 21 20 22 19 21 22 24 19 20 22 20 21 22 21 21 21 20 11
15 13 11 9 8 7 5 5 6 7 7 8 9 9 9 7 14 17 20 14 16 17 18 19 22 21 22 21 22 23 21 20 23 24 24 23 22 22 22 19 20 21 22
14 11 8 6 6 6 6 6 6 7 8 9 8 9 9 9 19 23 25 16 16 18 19 20 22 22 20 26 25 25 27 24 25 20 17 19 19 21 20 23 23 25 28
12 9 7 6 6 6 7 8 8 8 9 9 8 9 11 12 21 24 25 20 20 22 22 24 24 22 26 33 28 24 28 22 16 15 24 24 23 25 24 23 22 23 21
9 7 7 7 8 9 8 8 8 9 9 10 10 11 14 15 20 24 25 20 20 22 25 25 24 23 27 31 21 17 16 20 23 30 27 22 21 25 18 19 25 28 30
8 7 9 10 9 9 8 8 9 10 11 12 13 13 13 15 16 18 22 21 20 23 19 21 20 23 22 19 17 16 12 19 21 18 20 20 20 18 18 28 34 32 31
9 10 11 10 9 8 9 9 9 9 9 10 13 15 15 17 19 19 25 26 24 19 19 20 17 18 18 16 17 17 15 17 15 15 17 18 20 21 24 39 45 41 41
10 12 11 10 9 9 9 9 8 8 10 12 14 16 17 18 17 21 23 25 22 18 15 17 18 16 15 17 19 19 17 15 15 15 17 19 21 25 29 36 45 40 38
12 12 9 7 7 8 8 8 8 9 11 12 14 15 17 17 19 24 24 25 21 18 17 17 21 23 22 21 23 21 19 16 16 16 18 26 21 25 30 34 37 42 33
12 9 6 4 4 5 6 7 8 7 9 10 11 12 16 18 21 23 20 21 20 19 20 25 29 29 28 27 28 25 18 17 17 18 20 22 24 27 29 33 34 38 29
11 8 6 5 5 5 5 5 10 9 9 11 12 14 12 14 18 21 17 13 17 21 22 23 21 22 22 23 21 22 19 19 19 20 20 21 23 25 28 34 31 30 31
10 10 7 6 6 6 6 6 6 6 10 13 14 14 14 14 17 17 15 13 17 17 20 20 18 21 22 21 20 19 21 20 20 20 21 22 24 24 26 28 29 30 32
8 9 6 6 6 4 4 4 5 7 10 11 12 13 16 15 15 18 16 14 17 16 20 18 19 22 21 20 20 20 21 21 21 22 21 22 22 23 26 26 28 29 31
8 7 6 6 4 3 3 3 5 7 9 10 11 12 16 16 15 15 17 17 16 17 19 18 17 17 17 18 19 19 20 22 23 22 22 23 23 23 25 26 27 32 33
9 8 8 6 6 4 2 0 2 5 7 9 12 14 16 15 13 14 14 15 15 16 17 17 17 17 18 18 20 20 21 22 23 23 23 23 24 23 24 26 26 26 27
8 6 8 10 7 5 4 3 1 3 5 8 9 10 14 11 11 11 12 13 13 14 16 16 17 18 19 19 19 21 21 22 23 23 24 24 25 26 25 24 25 25 24
8 6 7 7 6 5 5 4 2 0 2 6 7 9 11 8 9 9 11 12 12 13 14 15 16 18 19 20 20 20 21 23 23 22 24 24 25 26 26 25 25 25 24
9 7 5 6 5 4 4 4 3 1 2 3 5 6 6 7 8 9 10 11 12 13 14 15 16 18 18 19 19 18 20 22 22 20 23 22 24 26 25 25 25 25 25
8 5 5 6 4 3 4 4 3 4 4 3 3 4 4 5 7 9 10 11 12 13 14 15 16 18 19 19 19 19 19 25 23 21 18 19 23 25 23 23 25 25 25
8 7 6 5 5 4 5 4 5 5 4 4 4 4 3 4 6 8 9 10 12 13 14 15 17 18 20 21 22 21 23 23 23 23 15 18 20 22 22 23 24 23 24
7 7 7 7 5 6 4 5 5 5 5 5 5 2 2 3 5 6 8 10 11 12 14 15 18 19 21 21 22 23 25 24 22 20 20 19 20 22 23 23 24 23 22

GFSGL_925_spd_168.txt.gz
Wind_Speed
15 14 14 12 11 10 10 10 8 6 5 7 8 9 11 13 12 11 10 12 13 16 16 17 17 18 19 19 19 21 21 24 19 27 26 23 23 27 27 30 29 28 29
12 10 10 8 7 8 6 5 4 4 6 8 9 10 9 6 7 9 11 13 15 16 17 17 17 17 17 18 20 20 23 24 26 23 25 22 25 25 27 29 29 27 27
8 8 7 7 6 5 4 2 2 2 3 4 4 4 6 8 10 11 12 13 15 15 15 15 17 18 19 20 21 24 24 24 23 25 27 24 23 24 25 27 28 29 27
9 8 8 7 6 5 5 4 3 3 3 3 5 7 8 10 11 9 13 14 15 15 16 17 18 18 18 21 22 21 20 20 20 23 23 23 20 23 21 19 23 20 24
13 12 11 10 9 8 8 7 5 5 5 6 7 8 8 10 8 11 12 15 16 16 19 18 18 17 21 18 17 21 21 18 20 21 21 22 23 22 20 21 21 19 22
16 15 13 12 11 10 8 6 5 5 6 7 8 9 9 6 12 14 14 15 16 18 18 17 17 19 14 17 15 21 21 21 22 19 20 19 22 21 22 19 18 16 8
17 15 14 13 10 8 6 5 6 6 7 7 8 9 6 6 14 18 19 13 15 16 17 17 17 19 18 13 21 23 20 18 17 20 21 18 21 21 22 20 20 22 23
17 15 12 11 9 7 6 6 7 6 7 8 8 9 9 7 15 19 19 13 13 15 15 16 16 16 14 22 24 23 21 17 14 11 13 18 22 26 21 22 24 25 27
15 13 10 9 8 7 6 6 6 6 6 7 7 8 9 11 16 19 21 15 15 17 18 17 16 15 24 23 21 19 18 13 13 16 20 25 26 22 18 15 15 17 21
13 12 10 9 7 6 5 6 6 6 6 8 9 9 9 11 17 21 25 19 19 20 18 18 18 19 23 21 18 17 19 19 24 23 23 20 19 17 17 7 17 15 22
11 11 9 8 8 6 6 7 6 7 8 9 10 10 9 12 13 20 24 19 16 16 16 18 18 26 23 20 17 16 18 20 18 16 16 16 17 18 19 17 22 20 29
12 10 11 9 7 6 7 7 7 8 8 9 10 11 11 12 13 21 23 20 17 13 15 16 18 22 21 17 17 18 18 16 14 16 16 17 19 21 22 25 30 34 37
14 12 12 12 8 6 9 8 7 8 9 10 11 12 12 12 13 20 20 18 17 15 13 16 17 18 21 22 22 23 22 18 16 17 18 20 22 22 26 28 28 38 38
17 13 12 12 8 10 8 8 9 10 10 10 12 12 12 12 15 18 17 16 17 17 16 14 19 22 23 25 26 26 21 17 17 18 20 22 24 24 25 26 28 34 36
15 11 8 10 9 9 9 9 7 6 9 10 10 11 11 13 15 16 15 14 13 15 14 16 19 21 25 28 27 21 17 19 19 20 21 23 24 25 25 29 30 32 31
16 13 11 8 7 5 6 6 7 7 11 10 10 11 8 11 14 16 14 12 16 16 14 17 18 19 20 25 21 22 21 21 21 22 22 22 24 24 26 28 31 30 29
14 15 13 12 4 5 4 2 2 4 3 5 10 10 13 11 13 16 12 11 15 15 14 17 18 20 19 18 20 20 21 22 22 22 22 23 24 25 26 26 28 30 32
13 13 11 12 6 5 4 2 2 5 5 2 2 7 13 13 14 17 15 12 15 16 17 16 16 17 19 19 20 21 22 23 23 23 22 23 24 25 26 28 27 26 32
16 13 9 9 6 4 3 1 2 4 5 6 6 5 13 15 7 11 14 14 14 16 17 17 18 18 18 19 19 20 21 23 24 23 23 24 25 26 27 28 27 29 30
12 12 9 8 7 6 4 1 1 3 4 6 7 10 13 11 10 11 12 13 13 14 16 16 17 17 18 19 20 20 21 23 24 24 24 24 25 25 27 27 28 25 23
11 12 8 7 7 6 4 3 0 2 3 4 6 8 9 8 10 11 11 13 14 14 15 16 17 17 19 19 20 21 21 23 24 24 24 24 25 27 26 26 27 25 23
9 9 9 8 7 6 5 3 2 1 1 3 4 5 10 7 8 9 10 11 12 13 14 15 16 18 19 19 20 20 21 24 25 24 24 24 25 27 26 26 26 26 25
10 8 6 6 6 4 5 5 4 3 2 2 3 5 5 6 7 8 9 10 11 13 14 15 16 18 19 18 19 19 20 23 24 21 23 20 25 27 26 26 26 25 25
9 7 6 6 6 6 5 5 4 2 3 2 4 4 3 3 5 6 8 9 11 12 13 14 16 18 20 20 19 19 19 23 21 19 16 20 23 26 25 25 26 24 24
8 7 6 6 6 6 4 5 5 6 5 4 5 4 3 3 5 6 7 8 10 11 13 14 16 17 20 19 20 19 23 23 18 19 19 18 20 22 23 23 25 23 24
6 6 6 6 6 6 6 6 6 5 5 5 4 3 2 2 3 5 7 8 9 10 12 13 16 17 20 19 21 21 23 20 18 17 19 18 19 19 23 22 24 23 23

GFSGL_925_spd_171.txt.gz
Wind_Speed
20 18 17 15 14 13 13 12 10 3 1 3 8 10 11 13 13 11 11 15 15 19 19 19 19 19 22 21 23 24 24 22 16 25 27 26 24 26 27 30 30 30 30
16 14 13 12 11 10 7 3 1 1 4 6 7 7 6 6 9 12 14 16 18 19 21 20 20 20 24 21 23 23 25 25 25 22 25 24 25 25 27 25 28 28 30
14 13 12 11 8 5 6 5 3 2 1 2 2 4 7 9 11 13 11 15 18 20 20 20 22 21 20 21 21 23 25 25 25 24 26 27 26 24 24 24 25 23 22
14 13 12 9 9 9 8 6 5 3 3 3 4 6 8 10 9 12 14 15 18 20 20 21 23 20 17 20 21 21 22 22 23 21 25 25 22 26 20 20 21 23 25
16 14 14 13 12 10 9 8 6 4 3 4 5 6 7 9 12 15 15 16 19 19 20 20 20 23 22 19 17 22 21 24 24 24 23 23 22 20 18 21 20 22 24
19 19 17 15 13 11 9 7 6 4 4 5 6 8 8 6 12 16 18 18 16 17 18 20 19 20 19 18 19 22 25 28 26 24 23 21 22 20 21 18 21 18 10
21 19 17 16 13 10 8 7 5 5 5 5 7 9 7 7 12 19 18 16 15 14 17 17 15 14 18 20 23 25 25 25 26 31 24 22 22 23 22 26 24 20 20
22 20 18 15 12 9 7 6 6 5 5 4 5 6 4 6 12 20 19 15 13 15 16 12 13 14 15 23 25 25 22 21 17 13 15 21 25 30 28 29 29 24 20
22 20 18 15 13 10 8 6 5 4 4 4 5 3 3 5 12 18 19 15 14 16 15 13 16 16 24 24 22 22 20 18 22 19 21 20 23 25 21 22 22 17 18
22 20 18 14 10 8 10 8 5 2 3 4 5 5 8 5 12 18 20 14 15 17 16 17 16 22 31 24 20 19 21 22 29 27 25 20 21 22 21 16 20 18 20
22 21 19 17 17 10 8 9 5 2 3 4 5 3 4 5 6 17 21 14 15 16 16 16 18 28 24 22 19 19 19 24 23 22 21 20 21 20 22 22 24 25 23
21 20 17 12 11 13 10 8 5 2 3 3 4 5 6 3 9 19 22 16 17 15 15 16 18 26 23 19 20 20 20 19 16 20 20 20 23 25 25 27 26 28 34
22 21 19 15 10 12 10 7 7 5 5 6 8 7 8 8 11 17 19 17 16 16 17 16 19 24 24 22 24 22 21 17 20 20 21 22 23 26 26 23 25 38 41
23 20 17 14 11 9 8 7 9 7 7 8 9 8 8 9 12 15 16 15 16 16 17 13 15 19 19 23 24 22 17 20 21 21 22 22 25 24 24 24 25 33 34
21 19 16 14 12 11 9 10 12 12 11 10 8 8 8 9 10 13 14 13 15 14 17 15 16 18 22 25 22 21 20 22 22 23 23 23 24 23 25 29 24 32 31
20 16 15 13 13 13 12 13 13 11 12 12 12 7 4 8 11 13 12 10 16 15 16 16 15 18 19 21 22 22 22 23 24 24 23 23 25 24 25 26 26 27 31
16 16 14 11 10 11 8 11 10 7 5 5 5 5 11 7 12 14 11 12 13 14 15 16 17 18 19 20 21 22 22 23 24 24 23 24 24 26 25 25 25 24 29
15 13 11 9 9 9 7 5 4 6 7 10 6 4 8 8 8 12 14 13 12 12 14 15 17 18 19 20 21 22 23 24 25 25 24 24 25 25 25 25 25 23 20
16 12 10 9 6 6 5 4 4 4 3 2 8 6 3 7 4 6 10 11 12 13 14 15 16 17 18 19 21 21 22 24 24 25 24 24 24 25 25 26 27 26 22
12 12 11 9 6 8 7 5 4 3 1 2 2 4 5 3 3 6 8 10 11 13 14 15 15 16 18 19 21 22 22 23 25 25 24 24 24 25 25 25 26 26 23
10 8 4 7 8 6 5 3 2 1 2 1 6 5 3 3 4 6 8 9 10 12 14 15 16 17 18 18 20 21 22 23 24 25 25 24 27 26 27 25 25 25 25
11 12 10 8 6 6 4 3 3 3 2 1 4 5 3 1 4 5 7 8 10 10 12 13 15 17 19 19 20 21 22 23 24 23 25 23 28 27 28 26 27 24 25
9 10 9 6 4 5 3 6 4 4 3 2 1 3 3 3 4 5 7 8 9 11 12 13 15 17 19 18 18 19 20 23 24 21 25 23 28 28 28 27 27 26 26
11 8 7 5 6 5 7 5 3 1 1 2 3 2 2 1 3 4 5 6 8 9 10 11 14 16 19 18 18 17 18 21 22 19 24 22 25 25 26 26 27 26 26
10 8 6 6 4 6 4 5 6 7 7 5 4 3 3 1 1 4 5 6 7 8 10 11 13 15 18 18 19 19 20 18 18 22 25 21 21 22 23 23 25 24 25
12 8 7 7 7 7 6 8 6 6 6 7 5 5 4 2 1 2 3 5 6 7 9 10 12 14 17 17 20 21 20 17 19 20 20 19 21 20 23 23 23 23 24

GFSGL_925_spd_174.txt.gz
Wind_Speed
25 23 23 20 19 18 16 14 10 5 1 3 6 9 11 11 8 10 13 15 16 17 18 21 21 21 19 27 27 24 21 21 17 26 25 25 30 28 30 34 36 33 30
25 21 20 17 15 15 11 6 5 3 3 4 5 6 6 8 10 14 14 12 17 20 21 20 21 22 25 24 21 22 25 24 21 21 23 26 27 30 30 33 31 29 29
23 19 14 13 11 9 12 9 6 5 4 4 3 5 7 7 5 8 12 15 18 20 24 25 25 22 21 23 21 19 18 21 20 22 26 30 27 26 30 29 22 24 25
22 18 16 14 18 15 12 10 8 6 4 4 4 6 4 6 10 14 18 21 22 21 21 22 19 22 24 22 21 23 23 25 22 22 24 24 25 28 25 22 19 24 22
20 18 22 22 16 16 15 12 9 6 5 4 4 7 10 9 16 19 21 22 22 19 18 23 21 24 18 21 23 24 26 26 26 25 23 25 23 23 21 21 22 23 28
27 25 27 24 22 20 18 15 13 11 9 7 6 6 7 9 15 17 21 20 17 17 19 18 18 17 24 26 27 29 26 23 26 21 25 23 25 22 22 22 22 20 8
27 27 27 25 23 21 18 15 11 9 5 9 9 6 6 8 14 19 19 13 18 17 17 15 16 14 23 28 32 30 24 25 22 21 23 23 19 21 28 26 24 22 23
26 25 24 24 23 20 17 14 13 9 8 7 8 5 5 6 11 18 21 12 13 17 17 14 14 18 22 31 30 24 23 24 22 29 27 25 24 26 25 26 28 26 26
25 24 24 21 19 17 17 14 12 11 8 8 6 7 6 4 9 16 20 14 14 14 13 18 16 21 30 28 25 22 23 27 27 23 23 21 21 23 27 18 20 19 18
25 24 21 19 18 18 18 14 12 11 7 8 5 4 6 4 7 16 20 11 12 12 14 14 13 24 29 23 23 19 22 27 29 27 31 29 24 22 27 22 27 20 22
24 22 21 19 20 19 18 14 10 9 9 8 3 8 8 3 8 17 18 10 12 12 13 15 14 25 28 24 21 17 22 24 25 26 24 21 26 27 27 27 23 23 23
23 21 20 21 17 17 18 13 9 10 8 9 3 14 8 9 12 16 16 11 12 12 13 14 16 21 27 21 21 20 19 23 24 22 22 24 23 28 29 28 29 30 36
22 20 18 17 18 17 16 15 9 7 8 10 8 5 7 8 10 13 12 13 14 15 16 14 15 15 26 26 24 23 21 23 21 21 22 23 26 27 28 25 32 32 38
21 18 18 18 18 18 14 13 12 10 11 8 4 4 4 7 9 12 13 12 12 12 17 18 14 17 22 21 22 21 21 22 23 23 23 24 26 26 25 27 28 30 29
20 19 18 17 15 19 20 15 13 11 8 6 4 4 5 7 8 10 10 11 12 15 17 13 16 19 20 21 23 22 23 24 25 25 24 25 25 26 27 30 27 29 22
21 21 20 19 17 18 22 18 14 13 12 12 10 7 4 7 8 7 7 10 12 12 14 15 16 18 19 22 24 24 24 24 26 25 24 24 25 26 29 29 31 29 25
20 20 19 19 22 23 18 17 14 10 9 7 7 10 9 6 9 7 10 12 6 11 11 14 14 15 16 18 20 23 24 24 23 25 22 24 25 27 29 28 30 30 28
20 19 16 18 17 15 16 17 21 16 12 10 5 5 6 4 5 8 12 13 13 12 13 13 14 16 17 18 18 20 24 23 22 24 24 25 27 28 29 28 28 29 28
20 15 16 15 14 14 11 11 9 7 5 16 11 5 1 3 3 4 6 10 10 11 12 12 12 14 14 16 17 19 22 22 24 24 25 26 28 29 27 30 28 29 28
17 17 17 15 14 13 10 9 9 6 5 6 13 5 3 9 5 4 6 7 8 10 11 13 13 15 16 17 18 20 20 21 23 24 25 27 28 32 27 30 28 25 25
16 16 16 18 17 16 15 9 8 5 4 9 9 3 4 1 3 4 4 6 7 8 10 12 14 16 18 18 19 21 20 21 22 23 24 28 28 30 29 30 29 26 26
16 16 12 10 10 11 7 9 10 9 6 10 12 8 5 2 2 4 3 5 6 8 10 11 14 16 19 19 19 20 20 21 22 23 25 28 28 28 27 29 29 25 28
19 15 12 7 11 12 7 3 6 8 8 6 7 9 5 3 4 2 3 4 4 6 8 10 12 14 17 17 18 18 18 21 24 23 25 28 28 27 25 27 28 25 27
15 14 14 13 10 8 9 11 10 9 7 8 7 5 3 3 5 4 2 3 4 6 7 9 11 14 16 17 17 17 19 22 23 26 27 23 25 22 25 26 28 26 26
12 11 11 10 10 8 4 9 10 10 9 8 8 7 7 5 3 3 3 2 3 5 6 9 10 13 14 16 18 20 20 19 20 23 22 21 20 22 24 24 26 23 23
11 10 10 9 8 8 9 9 10 10 11 9 9 9 7 6 4 4 3 3 2 4 5 8 9 12 13 15 18 19 18 19 21 20 21 20 22 23 21 23 24 21 23